Time,TemperatureF,DewpointF,PressureIn,WindDirection,WindDirectionDegrees,WindSpeedMPH,WindSpeedGustMPH,Humidity,HourlyPrecipIn,Conditions,Clouds,dailyrainin,SolarRadiationWatts/m^2,SoftwareType,DateUTC
2013-02-16 00:02:00,41.1,39.2,30.20,East,92,0.0,1.0,93,0.00,,,0.00,0,Wunderground v.1.15,2013-02-16 08:02:00,
2013-02-16 00:07:00,41.1,39.2,30.20,East,92,0.0,1.0,93,0.00,,,0.00,0,Wunderground v.1.15,2013-02-16 08:07:00,
2013-02-16 00:12:00,41.0,39.1,30.20,East,92,0.0,2.0,93,0.00,,,0.00,0,Wunderground v.1.15,2013-02-16 08:12:00,
2013-02-16 00:17:00,41.0,39.1,30.20,East,92,0.0,2.0,93,0.00,,,0.00,0,Wunderground v.1.15,2013-02-16 08:17:00,
2013-02-16 00:22:00,41.0,39.1,30.20,East,92,0.0,1.0,93,0.00,,,0.00,0,Wunderground v.1.15,2013-02-16 08:22:00,
2013-02-16 00:27:00,41.0,39.4,30.20,East,92,0.0,1.0,94,0.00,,,0.00,0,Wunderground v.1.15,2013-02-16 08:27:00,
2013-02-16 00:32:00,41.0,39.4,30.20,East,92,0.0,0.0,94,0.00,,,0.00,0,Wunderground v.1.15,2013-02-16 08:32:00,
2013-02-16 00:37:00,41.1,39.5,30.20,East,92,1.0,1.0,94,0.00,,,0.00,0,Wunderground v.1.15,2013-02-16 08:37:00,
2013-02-16 00:42:00,41.1,39.5,30.20,East,92,0.0,1.0,94,0.00,,,0.00,0,Wunderground v.1.15,2013-02-16 08:42:00,
2013-02-16 00:47:00,41.1,39.5,30.20,East,92,0.0,2.0,94,0.00,,,0.00,0,Wunderground v.1.15,2013-02-16 08:47:00,
2013-02-16 00:52:00,41.1,39.5,30.20,East,92,0.0,0.0,94,0.00,,,0.00,0,Wunderground v.1.15,2013-02-16 08:52:00,
2013-02-16 00:57:00,41.1,39.5,30.20,East,92,0.0,2.0,94,0.00,,,0.00,0,Wunderground v.1.15,2013-02-16 08:57:00,
2013-02-16 01:02:00,41.2,39.6,30.20,East,92,0.0,0.0,94,0.00,,,0.00,0,Wunderground v.1.15,2013-02-16 09:02:00,
2013-02-16 01:07:00,41.1,39.5,30.20,East,92,0.0,0.0,94,0.00,,,0.00,0,Wunderground v.1.15,2013-02-16 09:07:00,
2013-02-16 01:12:00,41.2,39.6,30.19,East,92,1.0,2.0,94,0.00,,,0.00,0,Wunderground v.1.15,2013-02-16 09:12:00,
2013-02-16 01:17:00,41.1,39.5,30.19,East,92,0.0,2.0,94,0.00,,,0.00,0,Wunderground v.1.15,2013-02-16 09:17:00,
2013-02-16 01:22:00,41.1,39.5,30.19,East,92,1.0,2.0,94,0.00,,,0.00,0,Wunderground v.1.15,2013-02-16 09:22:00,
2013-02-16 01:27:00,41.1,39.5,30.19,East,92,2.0,3.0,94,0.00,,,0.00,0,Wunderground v.1.15,2013-02-16 09:27:00,
2013-02-16 01:32:00,41.1,39.8,30.19,East,92,1.0,2.0,95,0.00,,,0.00,0,Wunderground v.1.15,2013-02-16 09:32:00,
2013-02-16 01:37:00,41.1,39.8,30.19,East,92,1.0,2.0,95,0.00,,,0.00,0,Wunderground v.1.15,2013-02-16 09:37:00,
2013-02-16 01:42:00,41.1,39.8,30.19,East,92,0.0,2.0,95,0.00,,,0.00,0,Wunderground v.1.15,2013-02-16 09:42:00,
2013-02-16 01:47:00,41.0,39.7,30.19,East,92,2.0,2.0,95,0.00,,,0.00,0,Wunderground v.1.15,2013-02-16 09:47:00,
2013-02-16 01:52:00,41.0,39.7,30.19,East,92,0.0,2.0,95,0.00,,,0.00,0,Wunderground v.1.15,2013-02-16 09:52:00,
2013-02-16 01:57:00,40.9,39.6,30.19,East,92,0.0,2.0,95,0.00,,,0.00,0,Wunderground v.1.15,2013-02-16 09:57:00,
2013-02-16 02:02:00,40.7,39.4,30.19,East,92,0.0,2.0,95,0.00,,,0.00,0,Wunderground v.1.15,2013-02-16 10:02:00,
2013-02-16 02:07:00,40.6,39.3,30.19,East,92,1.0,2.0,95,0.00,,,0.00,0,Wunderground v.1.15,2013-02-16 10:07:00,
2013-02-16 02:12:00,40.6,39.3,30.19,East,92,0.0,2.0,95,0.00,,,0.00,0,Wunderground v.1.15,2013-02-16 10:12:00,
2013-02-16 02:17:00,40.6,39.3,30.19,East,92,1.0,2.0,95,0.00,,,0.00,0,Wunderground v.1.15,2013-02-16 10:17:00,
2013-02-16 02:22:00,40.6,39.3,30.19,East,92,2.0,2.0,95,0.00,,,0.00,0,Wunderground v.1.15,2013-02-16 10:22:00,
2013-02-16 02:27:00,40.7,39.4,30.19,East,92,2.0,2.0,95,0.00,,,0.00,0,Wunderground v.1.15,2013-02-16 10:27:00,
2013-02-16 02:32:00,40.7,39.4,30.19,East,92,1.0,2.0,95,0.00,,,0.00,0,Wunderground v.1.15,2013-02-16 10:32:00,
2013-02-16 02:37:00,40.7,39.4,30.18,East,92,1.0,2.0,95,0.00,,,0.00,0,Wunderground v.1.15,2013-02-16 10:37:00,
2013-02-16 02:42:00,40.7,39.4,30.18,East,92,2.0,2.0,95,0.00,,,0.00,0,Wunderground v.1.15,2013-02-16 10:42:00,
2013-02-16 02:47:00,40.6,39.3,30.18,East,92,1.0,3.0,95,0.00,,,0.00,0,Wunderground v.1.15,2013-02-16 10:47:00,
2013-02-16 02:52:00,40.7,39.4,30.18,East,92,2.0,2.0,95,0.00,,,0.00,0,Wunderground v.1.15,2013-02-16 10:52:00,
2013-02-16 02:57:00,40.8,39.7,30.18,ESE,109,2.0,3.0,96,0.00,,,0.00,0,Wunderground v.1.15,2013-02-16 10:57:00,
2013-02-16 03:02:00,41.1,40.0,30.18,South,178,3.0,5.0,96,0.00,,,0.00,0,Wunderground v.1.15,2013-02-16 11:02:00,
2013-02-16 03:07:00,41.4,40.3,30.18,South,172,1.0,5.0,96,0.00,,,0.00,0,Wunderground v.1.15,2013-02-16 11:07:00,
2013-02-16 03:12:00,41.6,40.5,30.18,SSE,148,1.0,5.0,96,0.00,,,0.00,0,Wunderground v.1.15,2013-02-16 11:12:00,
2013-02-16 03:17:00,41.8,40.7,30.17,SSE,165,2.0,5.0,96,0.00,,,0.00,0,Wunderground v.1.15,2013-02-16 11:17:00,
2013-02-16 03:22:00,41.9,40.8,30.17,South,180,1.0,5.0,96,0.00,,,0.00,0,Wunderground v.1.15,2013-02-16 11:22:00,
2013-02-16 03:27:00,42.1,41.0,30.17,South,170,1.0,5.0,96,0.00,,,0.00,0,Wunderground v.1.15,2013-02-16 11:27:00,
2013-02-16 03:32:00,42.1,41.0,30.17,South,171,2.0,4.0,96,0.00,,,0.00,0,Wunderground v.1.15,2013-02-16 11:32:00,
2013-02-16 03:37:00,42.3,41.2,30.17,SSE,162,3.0,4.0,96,0.00,,,0.00,0,Wunderground v.1.15,2013-02-16 11:37:00,
2013-02-16 03:42:00,42.4,41.3,30.17,SSE,163,0.0,2.0,96,0.00,,,0.00,0,Wunderground v.1.15,2013-02-16 11:42:00,
2013-02-16 03:47:00,42.5,41.4,30.17,SSE,163,1.0,3.0,96,0.00,,,0.00,0,Wunderground v.1.15,2013-02-16 11:47:00,
2013-02-16 03:52:00,42.6,41.5,30.17,SSE,163,0.0,2.0,96,0.00,,,0.00,0,Wunderground v.1.15,2013-02-16 11:52:00,
2013-02-16 03:57:00,42.7,41.6,30.17,SSE,163,0.0,2.0,96,0.00,,,0.00,0,Wunderground v.1.15,2013-02-16 11:57:00,
2013-02-16 04:02:00,42.7,41.6,30.17,SSE,157,0.0,2.0,96,0.00,,,0.00,0,Wunderground v.1.15,2013-02-16 12:02:00,
2013-02-16 04:07:00,43.1,42.0,30.17,West,274,7.0,8.0,96,0.00,,,0.00,0,Wunderground v.1.15,2013-02-16 12:07:00,
2013-02-16 04:12:00,43.9,42.8,30.17,West,261,11.0,13.0,96,0.00,,,0.00,0,Wunderground v.1.15,2013-02-16 12:12:00,
2013-02-16 04:17:00,44.5,43.4,30.17,West,265,12.0,15.0,96,0.00,,,0.00,0,Wunderground v.1.15,2013-02-16 12:17:00,
2013-02-16 04:22:00,44.7,43.4,30.17,WNW,292,5.0,10.0,95,0.00,,,0.00,0,Wunderground v.1.15,2013-02-16 12:22:00,
2013-02-16 04:27:00,45.0,43.4,30.17,WSW,240,6.0,15.0,94,0.00,,,0.00,0,Wunderground v.1.15,2013-02-16 12:27:00,
2013-02-16 04:32:00,45.2,43.6,30.16,WSW,248,13.0,14.0,94,0.00,,,0.00,0,Wunderground v.1.15,2013-02-16 12:32:00,
2013-02-16 04:37:00,45.4,43.5,30.16,West,271,10.0,18.0,93,0.00,,,0.00,0,Wunderground v.1.15,2013-02-16 12:37:00,
2013-02-16 04:42:00,45.5,43.6,30.17,SW,234,10.0,14.0,93,0.00,,,0.00,0,Wunderground v.1.15,2013-02-16 12:42:00,
2013-02-16 04:47:00,45.6,43.4,30.17,SW,235,7.0,14.0,92,0.00,,,0.00,0,Wunderground v.1.15,2013-02-16 12:47:00,
2013-02-16 04:52:00,45.7,43.5,30.17,West,259,7.0,9.0,92,0.00,,,0.00,0,Wunderground v.1.15,2013-02-16 12:52:00,
2013-02-16 04:57:00,45.7,43.5,30.17,West,276,4.0,11.0,92,0.00,,,0.00,0,Wunderground v.1.15,2013-02-16 12:57:00,
2013-02-16 05:02:00,45.7,43.5,30.17,WSW,258,6.0,9.0,92,0.00,,,0.00,0,Wunderground v.1.15,2013-02-16 13:02:00,
2013-02-16 05:07:00,45.7,43.5,30.17,West,269,7.0,9.0,92,0.00,,,0.00,0,Wunderground v.1.15,2013-02-16 13:07:00,
2013-02-16 05:12:00,45.7,43.5,30.17,West,268,5.0,7.0,92,0.00,,,0.00,0,Wunderground v.1.15,2013-02-16 13:12:00,
2013-02-16 05:17:00,45.8,43.6,30.17,WSW,255,5.0,9.0,92,0.00,,,0.00,0,Wunderground v.1.15,2013-02-16 13:17:00,
2013-02-16 05:22:00,45.9,43.4,30.17,West,273,4.0,8.0,91,0.00,,,0.00,0,Wunderground v.1.15,2013-02-16 13:22:00,
2013-02-16 05:27:00,45.9,43.4,30.17,WSW,256,5.0,8.0,91,0.00,,,0.00,0,Wunderground v.1.15,2013-02-16 13:27:00,
2013-02-16 05:32:00,46.0,43.5,30.17,SW,231,6.0,6.0,91,0.00,,,0.00,0,Wunderground v.1.15,2013-02-16 13:32:00,
2013-02-16 05:37:00,46.1,43.6,30.17,West,260,8.0,8.0,91,0.00,,,0.00,0,Wunderground v.1.15,2013-02-16 13:37:00,
2013-02-16 05:42:00,46.2,43.7,30.17,West,260,7.0,8.0,91,0.00,,,0.00,0,Wunderground v.1.15,2013-02-16 13:42:00,
2013-02-16 05:47:00,46.4,43.9,30.17,West,273,7.0,11.0,91,0.00,,,0.00,0,Wunderground v.1.15,2013-02-16 13:47:00,
2013-02-16 05:52:00,46.5,43.7,30.17,West,261,3.0,11.0,90,0.00,,,0.00,0,Wunderground v.1.15,2013-02-16 13:52:00,
2013-02-16 05:57:00,46.6,43.8,30.18,West,270,3.0,11.0,90,0.00,,,0.00,0,Wunderground v.1.15,2013-02-16 13:57:00,
2013-02-16 06:02:00,46.6,43.8,30.18,SW,229,6.0,11.0,90,0.00,,,0.00,0,Wunderground v.1.15,2013-02-16 14:02:00,
2013-02-16 06:07:00,46.7,43.9,30.18,West,265,6.0,12.0,90,0.00,,,0.00,0,Wunderground v.1.15,2013-02-16 14:07:00,
2013-02-16 06:12:00,46.8,44.0,30.17,SW,227,8.0,13.0,90,0.00,,,0.00,0,Wunderground v.1.15,2013-02-16 14:12:00,
2013-02-16 06:17:00,46.8,44.0,30.17,West,261,5.0,13.0,90,0.00,,,0.00,0,Wunderground v.1.15,2013-02-16 14:17:00,
2013-02-16 06:22:00,46.8,44.0,30.18,West,259,4.0,8.0,90,0.00,,,0.00,0,Wunderground v.1.15,2013-02-16 14:22:00,
2013-02-16 06:27:00,46.8,44.0,30.18,West,261,10.0,12.0,90,0.00,,,0.00,0,Wunderground v.1.15,2013-02-16 14:27:00,
2013-02-16 06:32:00,46.7,43.9,30.18,NNW,330,6.0,13.0,90,0.00,,,0.00,0,Wunderground v.1.15,2013-02-16 14:32:00,
2013-02-16 06:37:00,46.7,43.9,30.18,WSW,250,4.0,13.0,90,0.00,,,0.00,0,Wunderground v.1.15,2013-02-16 14:37:00,
2013-02-16 06:42:00,46.7,43.9,30.18,WNW,301,1.0,6.0,90,0.00,,,0.00,0,Wunderground v.1.15,2013-02-16 14:42:00,
2013-02-16 06:47:00,46.7,43.9,30.17,West,277,3.0,7.0,90,0.00,,,0.00,0,Wunderground v.1.15,2013-02-16 14:47:00,
2013-02-16 06:52:00,46.7,43.9,30.18,West,266,4.0,6.0,90,0.00,,,0.00,0,Wunderground v.1.15,2013-02-16 14:52:00,
2013-02-16 06:57:00,46.7,43.9,30.17,West,271,4.0,13.0,90,0.00,,,0.00,0,Wunderground v.1.15,2013-02-16 14:57:00,
2013-02-16 07:02:00,46.7,43.9,30.18,West,271,5.0,6.0,90,0.00,,,0.00,0,Wunderground v.1.15,2013-02-16 15:02:00,
2013-02-16 07:07:00,46.7,43.9,30.17,WNW,283,3.0,8.0,90,0.00,,,0.00,0,Wunderground v.1.15,2013-02-16 15:07:00,
2013-02-16 07:12:00,46.7,43.9,30.17,West,266,3.0,11.0,90,0.00,,,0.00,0,Wunderground v.1.15,2013-02-16 15:12:00,
2013-02-16 07:17:00,46.8,44.0,30.17,West,264,5.0,12.0,90,0.00,,,0.00,0,Wunderground v.1.15,2013-02-16 15:17:00,
2013-02-16 07:22:00,46.8,44.0,30.17,West,267,6.0,9.0,90,0.00,,,0.00,0,Wunderground v.1.15,2013-02-16 15:22:00,
2013-02-16 07:27:00,46.8,43.7,30.18,West,259,4.0,9.0,89,0.00,,,0.00,0,Wunderground v.1.15,2013-02-16 15:27:00,
2013-02-16 07:32:00,46.9,43.8,30.18,West,274,4.0,6.0,89,0.00,,,0.00,0,Wunderground v.1.15,2013-02-16 15:32:00,
2013-02-16 07:37:00,46.8,43.7,30.18,WSW,252,5.0,9.0,89,0.00,,,0.00,0,Wunderground v.1.15,2013-02-16 15:37:00,
2013-02-16 07:42:00,46.9,43.8,30.18,West,262,5.0,9.0,89,0.00,,,0.00,0,Wunderground v.1.15,2013-02-16 15:42:00,
2013-02-16 07:47:00,46.9,43.8,30.18,West,277,7.0,9.0,89,0.00,,,0.00,0,Wunderground v.1.15,2013-02-16 15:47:00,
2013-02-16 07:52:00,47.0,43.9,30.18,West,273,4.0,7.0,89,0.00,,,0.00,5,Wunderground v.1.15,2013-02-16 15:52:00,
2013-02-16 07:57:00,47.0,43.9,30.18,SW,230,9.0,9.0,89,0.00,,,0.00,5,Wunderground v.1.15,2013-02-16 15:57:00,
2013-02-16 08:02:00,47.1,44.0,30.18,West,269,5.0,10.0,89,0.00,,,0.00,5,Wunderground v.1.15,2013-02-16 16:02:00,
2013-02-16 08:07:00,47.2,43.8,30.18,SW,226,3.0,10.0,88,0.00,,,0.00,5,Wunderground v.1.15,2013-02-16 16:07:00,
2013-02-16 08:12:00,47.2,43.8,30.18,WNW,296,6.0,12.0,88,0.00,,,0.00,5,Wunderground v.1.15,2013-02-16 16:12:00,
2013-02-16 08:17:00,47.2,43.8,30.18,WSW,250,7.0,12.0,88,0.00,,,0.00,5,Wunderground v.1.15,2013-02-16 16:17:00,
2013-02-16 08:22:00,47.2,43.8,30.18,West,269,4.0,6.0,88,0.00,,,0.00,5,Wunderground v.1.15,2013-02-16 16:22:00,
2013-02-16 08:27:00,47.3,43.9,30.18,WNW,282,6.0,8.0,88,0.00,,,0.00,7,Wunderground v.1.15,2013-02-16 16:27:00,
2013-02-16 08:32:00,47.2,43.8,30.18,West,271,8.0,14.0,88,0.00,,,0.00,9,Wunderground v.1.15,2013-02-16 16:32:00,
2013-02-16 08:37:00,47.3,43.9,30.18,West,268,4.0,14.0,88,0.00,,,0.00,12,Wunderground v.1.15,2013-02-16 16:37:00,
2013-02-16 08:42:00,47.2,43.8,30.18,WSW,257,4.0,8.0,88,0.00,,,0.00,11,Wunderground v.1.15,2013-02-16 16:42:00,
2013-02-16 08:47:00,47.2,43.8,30.18,West,273,4.0,12.0,88,0.00,,,0.00,11,Wunderground v.1.15,2013-02-16 16:47:00,
2013-02-16 08:52:00,47.2,43.8,30.19,West,273,5.0,11.0,88,0.00,,,0.00,9,Wunderground v.1.15,2013-02-16 16:52:00,
2013-02-16 08:57:00,47.2,43.8,30.19,West,261,5.0,12.0,88,0.00,,,0.00,9,Wunderground v.1.15,2013-02-16 16:57:00,
2013-02-16 09:02:00,47.3,43.9,30.19,West,269,4.0,9.0,88,0.00,,,0.00,11,Wunderground v.1.15,2013-02-16 17:02:00,
2013-02-16 09:07:00,47.3,43.6,30.19,WSW,250,10.0,10.0,87,0.00,,,0.00,11,Wunderground v.1.15,2013-02-16 17:07:00,
2013-02-16 09:12:00,47.3,43.6,30.19,WSW,252,4.0,5.0,87,0.00,,,0.00,11,Wunderground v.1.15,2013-02-16 17:12:00,
2013-02-16 09:17:00,47.3,43.6,30.18,SSW,210,7.0,12.0,87,0.00,,,0.00,12,Wunderground v.1.15,2013-02-16 17:17:00,
2013-02-16 09:22:00,47.3,43.6,30.18,WSW,255,3.0,8.0,87,0.00,,,0.00,16,Wunderground v.1.15,2013-02-16 17:22:00,
2013-02-16 09:27:00,47.3,43.6,30.18,West,265,9.0,10.0,87,0.00,,,0.00,12,Wunderground v.1.15,2013-02-16 17:27:00,
2013-02-16 09:32:00,47.4,43.7,30.19,NW,313,2.0,11.0,87,0.00,,,0.00,16,Wunderground v.1.15,2013-02-16 17:32:00,
2013-02-16 09:37:00,47.4,43.7,30.19,West,259,5.0,11.0,87,0.00,,,0.00,18,Wunderground v.1.15,2013-02-16 17:37:00,
2013-02-16 09:42:00,47.4,43.7,30.18,West,265,8.0,13.0,87,0.00,,,0.00,23,Wunderground v.1.15,2013-02-16 17:42:00,
2013-02-16 09:47:00,47.4,43.4,30.19,West,270,9.0,16.0,86,0.00,,,0.00,35,Wunderground v.1.15,2013-02-16 17:47:00,
2013-02-16 09:52:00,47.5,43.5,30.19,West,263,4.0,12.0,86,0.00,,,0.00,88,Wunderground v.1.15,2013-02-16 17:52:00,
2013-02-16 09:57:00,47.6,43.6,30.18,WSW,240,4.0,12.0,86,0.00,,,0.00,79,Wunderground v.1.15,2013-02-16 17:57:00,
2013-02-16 10:02:00,47.6,43.6,30.18,WSW,247,7.0,12.0,86,0.00,,,0.00,76,Wunderground v.1.15,2013-02-16 18:02:00,
2013-02-16 10:07:00,47.6,43.6,30.18,SW,221,5.0,16.0,86,0.00,,,0.00,100,Wunderground v.1.15,2013-02-16 18:07:00,
2013-02-16 10:12:00,47.6,43.6,30.18,WSW,255,10.0,13.0,86,0.00,,,0.00,77,Wunderground v.1.15,2013-02-16 18:12:00,
2013-02-16 10:17:00,47.7,43.7,30.19,West,265,10.0,13.0,86,0.00,,,0.00,58,Wunderground v.1.15,2013-02-16 18:17:00,
2013-02-16 10:22:00,47.7,43.4,30.19,WSW,245,8.0,12.0,85,0.00,,,0.00,65,Wunderground v.1.15,2013-02-16 18:22:00,
2013-02-16 10:27:00,47.7,43.4,30.18,West,269,13.0,15.0,85,0.00,,,0.00,77,Wunderground v.1.15,2013-02-16 18:27:00,
2013-02-16 10:32:00,47.7,43.4,30.18,West,261,8.0,11.0,85,0.00,,,0.00,91,Wunderground v.1.15,2013-02-16 18:32:00,
2013-02-16 10:37:00,47.8,43.5,30.18,SW,231,6.0,11.0,85,0.00,,,0.00,93,Wunderground v.1.15,2013-02-16 18:37:00,
2013-02-16 10:42:00,47.9,43.3,30.18,West,259,6.0,16.0,84,0.00,,,0.00,93,Wunderground v.1.15,2013-02-16 18:42:00,
2013-02-16 10:47:00,48.0,43.4,30.17,WSW,250,12.0,16.0,84,0.00,,,0.00,109,Wunderground v.1.15,2013-02-16 18:47:00,
2013-02-16 10:52:00,48.0,43.1,30.17,West,275,7.0,12.0,83,0.00,,,0.00,113,Wunderground v.1.15,2013-02-16 18:52:00,
2013-02-16 10:57:00,48.1,43.2,30.17,WNW,289,6.0,13.0,83,0.00,,,0.00,127,Wunderground v.1.15,2013-02-16 18:57:00,
2013-02-16 11:02:00,48.3,43.1,30.17,SW,225,8.0,11.0,82,0.00,,,0.00,125,Wunderground v.1.15,2013-02-16 19:02:00,
2013-02-16 11:07:00,48.4,43.2,30.17,WSW,241,10.0,17.0,82,0.00,,,0.00,120,Wunderground v.1.15,2013-02-16 19:07:00,
2013-02-16 11:12:00,48.4,43.2,30.17,West,269,8.0,17.0,82,0.00,,,0.00,100,Wunderground v.1.15,2013-02-16 19:12:00,
2013-02-16 11:17:00,48.5,43.3,30.17,West,267,7.0,17.0,82,0.00,,,0.00,172,Wunderground v.1.15,2013-02-16 19:17:00,
2013-02-16 11:22:00,48.6,43.4,30.17,WSW,242,6.0,12.0,82,0.00,,,0.00,171,Wunderground v.1.15,2013-02-16 19:22:00,
2013-02-16 11:27:00,48.7,43.5,30.17,WSW,252,8.0,13.0,82,0.00,,,0.00,195,Wunderground v.1.15,2013-02-16 19:27:00,
2013-02-16 11:32:00,48.9,43.3,30.17,SW,218,6.0,15.0,81,0.00,,,0.00,218,Wunderground v.1.15,2013-02-16 19:32:00,
2013-02-16 11:37:00,49.1,43.2,30.17,SW,227,7.0,15.0,80,0.00,,,0.00,214,Wunderground v.1.15,2013-02-16 19:37:00,
2013-02-16 11:42:00,49.5,43.6,30.17,NW,304,9.0,14.0,80,0.00,,,0.00,269,Wunderground v.1.15,2013-02-16 19:42:00,
2013-02-16 11:47:00,49.7,43.5,30.17,SW,232,6.0,14.0,79,0.00,,,0.00,195,Wunderground v.1.15,2013-02-16 19:47:00,
2013-02-16 11:52:00,49.7,43.5,30.17,WSW,255,9.0,9.0,79,0.00,,,0.00,183,Wunderground v.1.15,2013-02-16 19:52:00,
2013-02-16 11:57:00,49.8,43.5,30.16,West,280,9.0,16.0,79,0.00,,,0.00,169,Wunderground v.1.15,2013-02-16 19:57:00,
2013-02-16 12:02:00,49.9,43.3,30.16,West,269,15.0,15.0,78,0.00,,,0.00,255,Wunderground v.1.15,2013-02-16 20:02:00,
2013-02-16 12:07:00,50.1,43.2,30.16,West,274,15.0,17.0,77,0.00,,,0.00,287,Wunderground v.1.15,2013-02-16 20:07:00,
2013-02-16 12:12:00,50.5,43.2,30.15,WSW,246,12.0,15.0,76,0.00,,,0.00,357,Wunderground v.1.15,2013-02-16 20:12:00,
2013-02-16 12:17:00,51.6,43.9,30.15,West,273,9.0,15.0,75,0.00,,,0.00,504,Wunderground v.1.15,2013-02-16 20:17:00,
2013-02-16 12:22:00,52.0,43.3,30.15,WSW,250,8.0,15.0,72,0.00,,,0.00,527,Wunderground v.1.15,2013-02-16 20:22:00,
2013-02-16 12:27:00,52.2,43.4,30.15,West,269,9.0,15.0,72,0.00,,,0.00,475,Wunderground v.1.15,2013-02-16 20:27:00,
2013-02-16 12:32:00,52.0,43.3,30.15,WSW,257,8.0,18.0,72,0.00,,,0.00,513,Wunderground v.1.15,2013-02-16 20:32:00,
2013-02-16 12:37:00,52.1,43.0,30.14,West,272,11.0,18.0,71,0.00,,,0.00,621,Wunderground v.1.15,2013-02-16 20:37:00,
2013-02-16 12:42:00,51.9,42.8,30.13,SW,223,8.0,14.0,71,0.00,,,0.00,227,Wunderground v.1.15,2013-02-16 20:42:00,
2013-02-16 12:47:00,52.1,43.0,30.13,West,281,6.0,14.0,71,0.00,,,0.00,336,Wunderground v.1.15,2013-02-16 20:47:00,
2013-02-16 12:52:00,52.6,42.7,30.13,West,269,11.0,12.0,69,0.00,,,0.00,633,Wunderground v.1.15,2013-02-16 20:52:00,
2013-02-16 12:57:00,52.6,41.9,30.13,WNW,284,10.0,20.0,67,0.00,,,0.00,281,Wunderground v.1.15,2013-02-16 20:57:00,
2013-02-16 13:02:00,52.3,41.3,30.13,West,275,15.0,18.0,66,0.00,,,0.00,323,Wunderground v.1.15,2013-02-16 21:02:00,
2013-02-16 13:07:00,52.5,41.5,30.13,SSW,210,13.0,20.0,66,0.00,,,0.00,508,Wunderground v.1.15,2013-02-16 21:07:00,
2013-02-16 13:12:00,52.6,41.2,30.13,West,279,4.0,16.0,65,0.00,,,0.00,517,Wunderground v.1.15,2013-02-16 21:12:00,
2013-02-16 13:17:00,53.0,41.1,30.13,NW,322,9.0,18.0,64,0.00,,,0.00,543,Wunderground v.1.15,2013-02-16 21:17:00,
2013-02-16 13:22:00,52.8,41.0,30.13,WSW,246,12.0,16.0,64,0.00,,,0.00,243,Wunderground v.1.15,2013-02-16 21:22:00,
2013-02-16 13:27:00,52.5,41.1,30.13,South,188,10.0,16.0,65,0.00,,,0.00,274,Wunderground v.1.15,2013-02-16 21:27:00,
2013-02-16 13:32:00,52.2,40.8,30.13,WSW,258,10.0,21.0,65,0.00,,,0.00,195,Wunderground v.1.15,2013-02-16 21:32:00,
2013-02-16 13:37:00,52.4,41.0,30.12,WSW,239,9.0,21.0,65,0.00,,,0.00,244,Wunderground v.1.15,2013-02-16 21:37:00,
2013-02-16 13:42:00,52.5,41.5,30.13,West,265,9.0,16.0,66,0.00,,,0.00,487,Wunderground v.1.15,2013-02-16 21:42:00,
2013-02-16 13:47:00,52.4,41.0,30.12,WSW,238,10.0,16.0,65,0.00,,,0.00,237,Wunderground v.1.15,2013-02-16 21:47:00,
2013-02-16 13:52:00,52.4,41.0,30.12,WSW,248,15.0,15.0,65,0.00,,,0.00,457,Wunderground v.1.15,2013-02-16 21:52:00,
2013-02-16 13:57:00,52.3,40.9,30.12,SW,223,7.0,15.0,65,0.00,,,0.00,148,Wunderground v.1.15,2013-02-16 21:57:00,
2013-02-16 14:02:00,52.0,41.0,30.12,West,273,6.0,11.0,66,0.00,,,0.00,183,Wunderground v.1.15,2013-02-16 22:02:00,
2013-02-16 14:07:00,52.0,41.0,30.12,West,276,5.0,13.0,66,0.00,,,0.00,283,Wunderground v.1.15,2013-02-16 22:07:00,
2013-02-16 14:12:00,52.7,41.7,30.12,West,278,4.0,11.0,66,0.00,,,0.00,285,Wunderground v.1.15,2013-02-16 22:12:00,
2013-02-16 14:17:00,52.8,42.5,30.12,North,350,2.0,12.0,68,0.00,,,0.00,151,Wunderground v.1.15,2013-02-16 22:17:00,
2013-02-16 14:22:00,52.3,42.8,30.13,NW,306,2.0,6.0,70,0.00,,,0.00,128,Wunderground v.1.15,2013-02-16 22:22:00,
2013-02-16 14:27:00,51.9,42.8,30.13,East,98,5.0,8.0,71,0.00,,,0.00,120,Wunderground v.1.15,2013-02-16 22:27:00,
2013-02-16 14:32:00,51.0,43.0,30.13,NE,49,4.0,6.0,74,0.00,,,0.00,100,Wunderground v.1.15,2013-02-16 22:32:00,
2013-02-16 14:37:00,51.0,43.4,30.13,ESE,108,4.0,7.0,75,0.00,,,0.00,211,Wunderground v.1.15,2013-02-16 22:37:00,
2013-02-16 14:42:00,51.5,43.1,30.13,East,88,2.0,4.0,73,0.00,,,0.00,429,Wunderground v.1.15,2013-02-16 22:42:00,
2013-02-16 14:47:00,51.7,43.0,30.13,ENE,78,2.0,6.0,72,0.00,,,0.00,352,Wunderground v.1.15,2013-02-16 22:47:00,
2013-02-16 14:52:00,51.5,43.1,30.13,ENE,61,3.0,6.0,73,0.00,,,0.00,246,Wunderground v.1.15,2013-02-16 22:52:00,
2013-02-16 14:57:00,51.7,43.3,30.13,ESE,111,9.0,9.0,73,0.00,,,0.00,199,Wunderground v.1.15,2013-02-16 22:57:00,
2013-02-16 15:02:00,51.1,43.1,30.14,ESE,103,7.0,8.0,74,0.00,,,0.00,111,Wunderground v.1.15,2013-02-16 23:02:00,
2013-02-16 15:07:00,50.5,42.5,30.14,NE,49,4.0,8.0,74,0.00,,,0.00,88,Wunderground v.1.15,2013-02-16 23:07:00,
2013-02-16 15:12:00,50.0,42.0,30.14,ESE,116,4.0,8.0,74,0.00,,,0.00,116,Wunderground v.1.15,2013-02-16 23:12:00,
2013-02-16 15:17:00,49.3,41.7,30.14,East,96,7.0,9.0,75,0.00,,,0.00,135,Wunderground v.1.15,2013-02-16 23:17:00,
2013-02-16 15:22:00,49.0,42.1,30.14,NE,46,4.0,8.0,77,0.00,,,0.00,90,Wunderground v.1.15,2013-02-16 23:22:00,
2013-02-16 15:27:00,48.8,42.2,30.14,ESE,104,2.0,8.0,78,0.00,,,0.00,58,Wunderground v.1.15,2013-02-16 23:27:00,
2013-02-16 15:32:00,48.6,42.4,30.14,ESE,102,4.0,5.0,79,0.00,,,0.00,58,Wunderground v.1.15,2013-02-16 23:32:00,
2013-02-16 15:37:00,48.2,42.3,30.14,ESE,108,5.0,5.0,80,0.00,,,0.00,83,Wunderground v.1.15,2013-02-16 23:37:00,
2013-02-16 15:42:00,48.1,42.5,30.14,ESE,113,4.0,5.0,81,0.00,,,0.00,76,Wunderground v.1.15,2013-02-16 23:42:00,
2013-02-16 15:47:00,47.6,42.4,30.15,ESE,115,3.0,8.0,82,0.00,,,0.00,49,Wunderground v.1.15,2013-02-16 23:47:00,
2013-02-16 15:52:00,47.2,42.3,30.15,ESE,109,4.0,7.0,83,0.00,,,0.00,42,Wunderground v.1.15,2013-02-16 23:52:00,
2013-02-16 15:57:00,47.2,42.6,30.15,ESE,121,3.0,7.0,84,0.00,,,0.00,32,Wunderground v.1.15,2013-02-16 23:57:00,
2013-02-16 16:02:00,47.5,42.6,30.15,ESE,113,2.0,4.0,83,0.00,,,0.00,25,Wunderground v.1.15,2013-02-17 00:02:00,
2013-02-16 16:07:00,47.3,42.7,30.15,SE,132,4.0,7.0,84,0.00,,,0.01,16,Wunderground v.1.15,2013-02-17 00:07:00,
2013-02-16 16:12:00,46.9,42.9,30.15,East,98,3.0,5.0,86,0.42,,,0.03,11,Wunderground v.1.15,2013-02-17 00:12:00,
2013-02-16 16:17:00,46.6,42.9,30.15,ESE,105,1.0,5.0,87,0.26,,,0.06,12,Wunderground v.1.15,2013-02-17 00:17:00,
2013-02-16 16:22:00,46.4,43.0,30.15,ESE,105,1.0,2.0,88,0.13,,,0.07,9,Wunderground v.1.15,2013-02-17 00:22:00,
2013-02-16 16:27:00,46.4,43.3,30.15,SSE,154,3.0,4.0,89,0.12,,,0.08,9,Wunderground v.1.15,2013-02-17 00:27:00,
2013-02-16 16:32:00,46.4,43.3,30.16,South,187,0.0,1.0,89,0.06,,,0.08,9,Wunderground v.1.15,2013-02-17 00:32:00,
2013-02-16 16:37:00,46.3,43.2,30.16,SSW,211,0.0,3.0,89,0.13,,,0.09,12,Wunderground v.1.15,2013-02-17 00:37:00,
2013-02-16 16:42:00,46.3,43.5,30.16,SSW,211,2.0,3.0,90,0.19,,,0.11,14,Wunderground v.1.15,2013-02-17 00:42:00,
2013-02-16 16:47:00,46.0,43.2,30.16,SSE,162,3.0,4.0,90,0.09,,,0.11,12,Wunderground v.1.15,2013-02-17 00:47:00,
2013-02-16 16:52:00,45.5,42.7,30.16,SSE,158,3.0,3.0,90,0.08,,,0.12,16,Wunderground v.1.15,2013-02-17 00:52:00,
2013-02-16 16:57:00,45.2,42.7,30.16,South,171,2.0,4.0,91,0.06,,,0.12,23,Wunderground v.1.15,2013-02-17 00:57:00,
2013-02-16 17:02:00,45.3,43.1,30.16,South,174,0.0,3.0,92,0.04,,,0.12,21,Wunderground v.1.15,2013-02-17 01:02:00,
2013-02-16 17:07:00,45.3,43.1,30.16,SSE,150,2.0,4.0,92,0.00,,,0.12,32,Wunderground v.1.15,2013-02-17 01:07:00,
2013-02-16 17:12:00,45.2,43.3,30.16,SSE,167,2.0,4.0,93,0.00,,,0.12,25,Wunderground v.1.15,2013-02-17 01:12:00,
2013-02-16 17:17:00,44.9,42.7,30.16,SSE,148,2.0,4.0,92,0.00,,,0.12,21,Wunderground v.1.15,2013-02-17 01:17:00,
2013-02-16 17:22:00,44.7,42.8,30.16,SSE,162,3.0,5.0,93,0.00,,,0.12,21,Wunderground v.1.15,2013-02-17 01:22:00,
2013-02-16 17:27:00,44.7,42.8,30.16,SSE,153,3.0,7.0,93,0.00,,,0.12,11,Wunderground v.1.15,2013-02-17 01:27:00,
2013-02-16 17:32:00,44.7,42.8,30.15,SSE,165,1.0,3.0,93,0.00,,,0.12,0,Wunderground v.1.15,2013-02-17 01:32:00,
2013-02-16 17:37:00,44.7,42.8,30.16,SSE,158,1.0,5.0,93,0.00,,,0.12,0,Wunderground v.1.15,2013-02-17 01:37:00,
2013-02-16 17:42:00,44.6,42.7,30.16,South,173,2.0,4.0,93,0.00,,,0.12,0,Wunderground v.1.15,2013-02-17 01:42:00,
2013-02-16 17:47:00,44.6,42.7,30.15,SSE,163,2.0,5.0,93,0.00,,,0.12,0,Wunderground v.1.15,2013-02-17 01:47:00,
2013-02-16 17:52:00,44.5,42.6,30.16,SSE,161,3.0,3.0,93,0.00,,,0.12,0,Wunderground v.1.15,2013-02-17 01:52:00,
2013-02-16 17:57:00,44.5,42.6,30.16,SSE,148,1.0,4.0,93,0.00,,,0.12,0,Wunderground v.1.15,2013-02-17 01:57:00,
2013-02-16 18:02:00,44.3,42.4,30.16,SSE,157,2.0,4.0,93,0.00,,,0.12,0,Wunderground v.1.15,2013-02-17 02:02:00,
2013-02-16 18:07:00,44.2,42.3,30.16,SSE,160,1.0,4.0,93,0.00,,,0.12,0,Wunderground v.1.15,2013-02-17 02:07:00,
2013-02-16 18:12:00,44.1,42.2,30.16,South,178,2.0,3.0,93,0.00,,,0.12,0,Wunderground v.1.15,2013-02-17 02:12:00,
2013-02-16 18:17:00,44.0,41.8,30.16,SSE,165,4.0,5.0,92,0.00,,,0.12,0,Wunderground v.1.15,2013-02-17 02:17:00,
2013-02-16 18:21:00,43.8,41.6,30.16,South,169,3.0,5.0,92,0.00,,,0.12,0,Wunderground v.1.15,2013-02-17 02:21:00,
2013-02-16 18:26:00,43.7,41.5,30.16,SSE,163,3.0,5.0,92,0.00,,,0.12,0,Wunderground v.1.15,2013-02-17 02:26:00,
2013-02-16 18:31:00,43.7,41.5,30.16,SSE,157,3.0,5.0,92,0.00,,,0.12,0,Wunderground v.1.15,2013-02-17 02:31:00,
2013-02-16 18:36:00,43.6,41.4,30.17,SSE,151,2.0,6.0,92,0.00,,,0.12,0,Wunderground v.1.15,2013-02-17 02:36:00,
2013-02-16 18:41:00,43.5,41.3,30.17,WSW,248,1.0,5.0,92,0.00,,,0.12,0,Wunderground v.1.15,2013-02-17 02:41:00,
2013-02-16 18:46:00,43.5,41.3,30.17,South,169,3.0,5.0,92,0.00,,,0.12,0,Wunderground v.1.15,2013-02-17 02:46:00,
2013-02-16 18:51:00,43.5,41.0,30.17,South,171,3.0,5.0,91,0.00,,,0.12,0,Wunderground v.1.15,2013-02-17 02:51:00,
2013-02-16 18:56:00,43.4,40.9,30.17,South,171,5.0,5.0,91,0.00,,,0.12,0,Wunderground v.1.15,2013-02-17 02:56:00,
2013-02-16 19:01:00,43.4,40.9,30.17,SW,222,0.0,3.0,91,0.00,,,0.12,0,Wunderground v.1.15,2013-02-17 03:01:00,
2013-02-16 19:06:00,43.5,41.0,30.17,SW,221,1.0,4.0,91,0.00,,,0.12,0,Wunderground v.1.15,2013-02-17 03:06:00,
2013-02-16 19:11:00,43.4,40.9,30.17,SSE,157,1.0,4.0,91,0.00,,,0.12,0,Wunderground v.1.15,2013-02-17 03:11:00,
2013-02-16 19:16:00,43.4,40.9,30.18,South,175,1.0,5.0,91,0.00,,,0.12,0,Wunderground v.1.15,2013-02-17 03:16:00,
2013-02-16 19:21:00,43.4,40.9,30.17,SSE,165,2.0,3.0,91,0.00,,,0.12,0,Wunderground v.1.15,2013-02-17 03:21:00,
2013-02-16 19:26:00,43.5,41.0,30.17,WSW,254,4.0,4.0,91,0.00,,,0.12,0,Wunderground v.1.15,2013-02-17 03:26:00,
2013-02-16 19:31:00,43.5,40.8,30.17,SW,225,3.0,4.0,90,0.00,,,0.12,0,Wunderground v.1.15,2013-02-17 03:31:00,
2013-02-16 19:36:00,43.6,40.9,30.17,SW,227,0.0,4.0,90,0.00,,,0.12,0,Wunderground v.1.15,2013-02-17 03:36:00,
2013-02-16 19:41:00,43.6,40.9,30.17,SE,125,2.0,3.0,90,0.00,,,0.12,0,Wunderground v.1.15,2013-02-17 03:41:00,
2013-02-16 19:46:00,43.6,41.1,30.18,SE,125,1.0,3.0,91,0.00,,,0.12,0,Wunderground v.1.15,2013-02-17 03:46:00,
2013-02-16 19:51:00,43.7,41.2,30.18,ESE,121,4.0,4.0,91,0.00,,,0.12,0,Wunderground v.1.15,2013-02-17 03:51:00,
2013-02-16 19:56:00,43.8,41.1,30.18,East,101,3.0,5.0,90,0.00,,,0.12,0,Wunderground v.1.15,2013-02-17 03:56:00,
2013-02-16 20:01:00,43.8,41.1,30.18,ESE,113,3.0,4.0,90,0.00,,,0.12,0,Wunderground v.1.15,2013-02-17 04:01:00,
2013-02-16 20:06:00,43.8,41.1,30.18,ESE,117,2.0,4.0,90,0.00,,,0.13,0,Wunderground v.1.15,2013-02-17 04:06:00,
2013-02-16 20:11:00,43.9,41.4,30.18,ESE,123,0.0,2.0,91,0.09,,,0.14,0,Wunderground v.1.15,2013-02-17 04:11:00,
2013-02-16 20:16:00,44.0,41.5,30.18,SE,127,0.0,3.0,91,0.09,,,0.14,0,Wunderground v.1.15,2013-02-17 04:16:00,
2013-02-16 20:21:00,44.0,41.5,30.18,SE,138,1.0,3.0,91,0.05,,,0.14,0,Wunderground v.1.15,2013-02-17 04:21:00,
2013-02-16 20:26:00,44.1,41.6,30.18,SE,141,3.0,3.0,91,0.04,,,0.14,0,Wunderground v.1.15,2013-02-17 04:26:00,
2013-02-16 20:31:00,44.1,41.4,30.19,ESE,113,0.0,2.0,90,0.00,,,0.14,0,Wunderground v.1.15,2013-02-17 04:31:00,
2013-02-16 20:36:00,44.1,41.6,30.19,SSE,166,3.0,4.0,91,0.00,,,0.15,0,Wunderground v.1.15,2013-02-17 04:36:00,
2013-02-16 20:41:00,44.1,41.6,30.19,South,173,0.0,2.0,91,0.00,,,0.15,0,Wunderground v.1.15,2013-02-17 04:41:00,
2013-02-16 20:46:00,44.0,41.5,30.19,South,171,3.0,3.0,91,0.00,,,0.15,0,Wunderground v.1.15,2013-02-17 04:46:00,
2013-02-16 20:51:00,43.9,41.4,30.19,SSE,160,3.0,3.0,91,0.00,,,0.15,0,Wunderground v.1.15,2013-02-17 04:51:00,
2013-02-16 20:56:00,43.8,41.3,30.19,SE,141,1.0,4.0,91,0.00,,,0.15,0,Wunderground v.1.15,2013-02-17 04:56:00,
2013-02-16 21:00:00,43.7,41.2,30.19,SE,142,0.0,4.0,91,0.00,,,0.15,0,Wunderground v.1.15,2013-02-17 05:00:00,
2013-02-16 21:05:00,43.6,41.1,30.19,SSE,148,0.0,3.0,91,0.00,,,0.15,0,Wunderground v.1.15,2013-02-17 05:05:00,
2013-02-16 21:10:00,43.6,41.1,30.19,SSE,148,1.0,1.0,91,0.00,,,0.15,0,Wunderground v.1.15,2013-02-17 05:10:00,
2013-02-16 21:15:00,43.6,40.9,30.19,WSW,247,7.0,10.0,90,0.00,,,0.15,0,Wunderground v.1.15,2013-02-17 05:15:00,
2013-02-16 21:20:00,43.7,40.4,30.19,WSW,256,1.0,4.0,88,0.00,,,0.15,0,Wunderground v.1.15,2013-02-17 05:20:00,
2013-02-16 21:25:00,43.7,40.1,30.20,West,259,4.0,8.0,87,0.00,,,0.15,0,Wunderground v.1.15,2013-02-17 05:25:00,
2013-02-16 21:30:00,43.8,39.9,30.20,West,259,3.0,3.0,86,0.00,,,0.15,0,Wunderground v.1.15,2013-02-17 05:30:00,
2013-02-16 21:35:00,43.8,39.9,30.19,WSW,255,2.0,4.0,86,0.00,,,0.15,0,Wunderground v.1.15,2013-02-17 05:35:00,
2013-02-16 21:40:00,43.9,40.0,30.19,West,268,2.0,2.0,86,0.00,,,0.15,0,Wunderground v.1.15,2013-02-17 05:40:00,
2013-02-16 21:45:00,44.0,40.1,30.20,SSE,149,3.0,5.0,86,0.00,,,0.15,0,Wunderground v.1.15,2013-02-17 05:45:00,
2013-02-16 21:50:00,43.8,40.5,30.20,South,180,5.0,5.0,88,0.00,,,0.15,0,Wunderground v.1.15,2013-02-17 05:50:00,
2013-02-16 21:55:00,43.3,40.3,30.20,SSE,161,2.0,5.0,89,0.00,,,0.15,0,Wunderground v.1.15,2013-02-17 05:55:00,
2013-02-16 22:00:00,43.1,40.4,30.20,South,175,1.0,3.0,90,0.00,,,0.15,0,Wunderground v.1.15,2013-02-17 06:00:00,
2013-02-16 22:05:00,43.0,40.3,30.20,South,174,3.0,3.0,90,0.00,,,0.15,0,Wunderground v.1.15,2013-02-17 06:05:00,
2013-02-16 22:10:00,43.0,40.3,30.20,South,175,0.0,1.0,90,0.00,,,0.15,0,Wunderground v.1.15,2013-02-17 06:10:00,
2013-02-16 22:15:00,42.9,40.5,30.20,South,173,2.0,4.0,91,0.00,,,0.15,0,Wunderground v.1.15,2013-02-17 06:15:00,
2013-02-16 22:20:00,42.9,40.5,30.20,SSE,168,0.0,2.0,91,0.00,,,0.15,0,Wunderground v.1.15,2013-02-17 06:20:00,
2013-02-16 22:25:00,42.8,40.4,30.20,SSE,168,0.0,4.0,91,0.00,,,0.15,0,Wunderground v.1.15,2013-02-17 06:25:00,
2013-02-16 22:30:00,42.9,40.2,30.20,SSE,166,0.0,1.0,90,0.00,,,0.15,0,Wunderground v.1.15,2013-02-17 06:30:00,
2013-02-16 22:35:00,42.9,40.2,30.21,South,186,1.0,3.0,90,0.00,,,0.15,0,Wunderground v.1.15,2013-02-17 06:35:00,
2013-02-16 22:40:00,42.9,40.2,30.21,South,187,2.0,4.0,90,0.00,,,0.15,0,Wunderground v.1.15,2013-02-17 06:40:00,
2013-02-16 22:45:00,42.9,40.2,30.21,SW,219,2.0,6.0,90,0.00,,,0.15,0,Wunderground v.1.15,2013-02-17 06:45:00,
2013-02-16 22:50:00,42.9,40.2,30.21,SW,221,3.0,3.0,90,0.00,,,0.15,0,Wunderground v.1.15,2013-02-17 06:50:00,
2013-02-16 22:55:00,43.0,40.3,30.21,SW,225,0.0,4.0,90,0.00,,,0.15,0,Wunderground v.1.15,2013-02-17 06:55:00,
2013-02-16 23:00:00,43.0,40.3,30.21,SW,223,2.0,4.0,90,0.00,,,0.15,0,Wunderground v.1.15,2013-02-17 07:00:00,
2013-02-16 23:05:00,42.9,40.2,30.21,SSW,197,0.0,5.0,90,0.00,,,0.15,0,Wunderground v.1.15,2013-02-17 07:05:00,
2013-02-16 23:10:00,42.9,40.2,30.21,SW,217,3.0,5.0,90,0.00,,,0.15,0,Wunderground v.1.15,2013-02-17 07:10:00,
2013-02-16 23:15:00,42.8,40.1,30.21,SW,214,6.0,6.0,90,0.00,,,0.15,0,Wunderground v.1.15,2013-02-17 07:15:00,
2013-02-16 23:20:00,42.7,39.7,30.21,SW,221,2.0,6.0,89,0.00,,,0.15,0,Wunderground v.1.15,2013-02-17 07:20:00,
2013-02-16 23:25:00,42.7,39.7,30.21,WSW,250,3.0,5.0,89,0.00,,,0.15,0,Wunderground v.1.15,2013-02-17 07:25:00,
2013-02-16 23:30:00,42.6,39.6,30.22,SSW,200,7.0,7.0,89,0.00,,,0.15,0,Wunderground v.1.15,2013-02-17 07:30:00,
2013-02-16 23:35:00,42.5,38.9,30.22,West,279,6.0,8.0,87,0.00,,,0.15,0,Wunderground v.1.15,2013-02-17 07:35:00,
2013-02-16 23:40:00,42.4,38.5,30.22,South,190,2.0,8.0,86,0.00,,,0.15,0,Wunderground v.1.15,2013-02-17 07:40:00,
2013-02-16 23:45:00,42.5,38.6,30.22,SW,219,4.0,7.0,86,0.00,,,0.15,0,Wunderground v.1.15,2013-02-17 07:45:00,
2013-02-16 23:50:00,42.5,38.3,30.22,SW,219,5.0,9.0,85,0.00,,,0.15,0,Wunderground v.1.15,2013-02-17 07:50:00,
2013-02-16 23:55:00,42.5,38.3,30.22,SSW,203,0.0,9.0,85,0.00,,,0.00,0,Wunderground v.1.15,2013-02-17 07:55:00,